Regional Weather Roundup
Issued by NWS

Home | Current Version | Previous Version | Graphics & Text | Print | Product List | Glossary Off
Versions: 1 2 3 4 5 6 7 8 9 10 11 12 13 14 15 16 17 18 19 20 21 22 23 24 25 26 27 28 29 30 31 32 33 34 35 36 37 38 39 40 41 42 43 44 45 46 47 48 49 50

000
ASUS43 KDTX 212201
RWRMI
MICHIGAN HOURLY REGIONAL WEATHER ROUNDUP
NATIONAL WEATHER SERVICE DETROIT/PONTIAC MI
600 PM EDT SAT APR 21 2018

NOTE: "FAIR" INDICATES FEW OR NO CLOUDS BELOW 12,000 FEET WITH NO
SIGNIFICANT WEATHER AND/OR OBSTRUCTION TO VISIBILITY.

MIZ047>049-052>055-059>063-066>070-074>076-081>083-212300-
SOUTHEAST LOWER MICHIGAN

CITY           SKY/WX    TMP DP  RH WIND       PRES   REMARKS
ADRIAN         FAIR      54  24  31 CALM      30.41S
ALMA           FAIR      57  28  32 SE7       30.38F
ANN ARBOR      FAIR      55  26  32 W3        30.40R
BAD AXE        FAIR      58  17  20 E5        30.40R
CARO           FAIR      58  23  25 CALM      30.38S
DETROIT CITY   FAIR      53  15  22 SE7       30.42R
DETROIT        CLOUDY    56  26  31 S6        30.41S
FLINT          FAIR      56  26  31 VRB3      30.39S
GROSSE ILE     FAIR      46  26  46 S6        30.42S
HILLSDALE      PTSUNNY   54  21  28 CALM      30.39R
HOWELL         FAIR      56  23  28 CALM      30.39S

CITY           SKY/WX    TMP DP  RH WIND       PRES   REMARKS
JACKSON        FAIR      56  20  24 W5        30.39S
LAMBERTVILLE   FAIR      52  15  22 E6        30.42R
LANSING        FAIR      57  25  29 W3        30.39S
LAPEER         FAIR      57  24  27 CALM      30.39S
MASON          FAIR      58  19  21 CALM      30.39S
MT. CLEMENS    PTSUNNY   52  22  31 S7        30.40S
PONTIAC        CLOUDY    55  25  31 CALM      30.38S
PORT HOPE        N/A     43  34  70 SE9       30.39S
PORT HURON     FAIR      55  19  24 CALM      30.42R
TRI CITIES     FAIR      59  26  28 SW9       30.38S
MIDLAND        FAIR      58  28  32 SW6       30.36S
TROY           FAIR      55  10  16 E7        30.42S
SAGINAW HB     FAIR      59  23  25 S3        30.38S
$$
MIZ043>046-050>051-056>058-064>065-071>073-077>080-212300-
SOUTHWEST LOWER MICHIGAN

CITY           SKY/WX    TMP DP  RH WIND       PRES   REMARKS
BATTLE CREEK   FAIR      57  27  31 SW7       30.39S
BENTON HARBOR  FAIR      51  16  24 N8        30.39F
BIG RAPIDS     FAIR      58   5  12 CALM      30.36S
COLDWATER      FAIR      57  25  28 CALM      30.38S
HOLLAND        FAIR      53  21  28 NW6       30.40F
GRAND RAPIDS   PTSUNNY   58  23  26 VRB6      30.38S
IONIA          FAIR      58  19  21 S5        30.37S
KALAMAZOO      FAIR      58  23  26 SW3       30.38S
LUDINGTON      FAIR      51  17  26 W7        30.39F
MARSHALL       FAIR      55  24  29 SE3       30.39S
MOUNT PLEASANT FAIR      60  20  21 W3        30.37S
MUSKEGON       PTSUNNY   53  14  21 NW8       30.40S
SOUTH HAVEN    PTSUNNY   51  21  31 N6        30.40F
$$
MIZ016>042-212300-
NORTHERN LOWER MICHIGAN

CITY           SKY/WX    TMP DP  RH WIND       PRES   REMARKS
ALPENA         FAIR      50  21  32 E9        30.39S
BEAVER ISLAND  FAIR      51  16  25 SW9       30.39S
BELLAIRE       FAIR      56  12  18 NW3       30.38S
CADILLAC       FAIR      58  16  19 SW5       30.35S
CHARLEVOIX     FAIR      54  17  23 SW6       30.42S
FRANKFORT      FAIR      50  17  27 W3        30.40S
GAYLORD        FAIR      52  11  19 CALM      30.36F
GRAYLING       FAIR      56  12  17 NW7       30.35F
HARBOR SPRINGS FAIR      47  19  33 SW3       30.39S
HOUGHTON LAKE  FAIR      57  15  19 W9        30.37S
MANISTEE       FAIR      53  13  20 W9        30.39F
OSCODA         FAIR      49  23  36 SE8       30.39F
PELLSTON       FAIR      54  12  18 W7        30.38F
ROGERS CITY    FAIR      51  17  26 NE5       30.39S
TRAVERSE CITY  FAIR      49  24  37 NE8       30.37S
$$
MIZ007>008-015-212300-
EASTERN UPPER MICHIGAN

CITY           SKY/WX    TMP DP  RH WIND       PRES   REMARKS
KINROSS        FAIR      54  15  21 W9G16     30.37S
MACKINAC ISLAN FAIR      50  16  26 W9        30.38S
NEWBERRY       FAIR      50  21  31 S5        30.36S
S. S. MARIE    FAIR      56  17  21 S10       30.36S
MUNISING         N/A     40  27  59 NE8       30.35F WCI  34
$$
MIZ004>006-011>014-085-212300-
CENTRAL UPPER MICHIGAN

CITY           SKY/WX    TMP DP  RH WIND       PRES   REMARKS
MANISTIQUE     FAIR      43  31  64 S14       30.36F
ESCANABA       FAIR      51  22  31 S12       30.35F
MENOMINEE      FAIR      57  22  25 S9        30.36S
SAWYER-GWINN   SUNNY     50  16  25 N9        30.34S
$$
MIZ001>003-009>011-084-212300-
WESTERN UPPER MICHIGAN

CITY           SKY/WX    TMP DP  RH WIND       PRES   REMARKS
IRON MOUNTAIN  FAIR      63  13  14 CALM      30.30S
HOUGHTON       FAIR      50  24  36 NW6       30.35S
COPPER HARBOR    N/A     42  29  59 CALM      30.37S
IRONWOOD       FAIR      55  16  21 NW9       30.34S
$$

ABBREVIATIONS USED IN REMARKS
   TC - TEMPERATURE IN CELSIUS
  WCI - WIND CHILL INDEX
   HX - HEAT INDEX
  VSB - VISIBILITY





USA.gov is the U.S. government's official web portal to all federal, state and local government web resources and services.